CDT,Max TemperatureF,Mean TemperatureF,Min TemperatureF,Max Dew PointF,MeanDew PointF,Min DewpointF,Max Humidity, Mean Humidity, Min Humidity, Max Sea Level PressureIn, Mean Sea Level PressureIn, Min Sea Level PressureIn, Max VisibilityMiles, Mean VisibilityMiles, Min VisibilityMiles, Max Wind SpeedMPH, Mean Wind SpeedMPH, Max Gust SpeedMPH,PrecipitationIn, CloudCover, Events, WindDirDegrees
2013-3-1,24,13,1,16,7,-2,100,87,73,30.46,30.36,30.24,10,6,0,9,4,10,0.00,1,Fog,354
2013-3-2,26,12,-2,18,4,-6,95,85,74,30.42,30.26,30.08,10,4,0,17,8,22,0.00,7,Fog,158
2013-3-3,32,25,17,28,22,15,92,85,78,30.06,29.89,29.72,10,7,4,21,12,29,0.12,4,Rain,144
2013-3-4,32,26,19,29,24,18,100,86,72,29.94,29.81,29.70,10,6,1,18,9,27,0.02,7,Snow,176
2013-3-5,23,20,16,21,18,13,100,90,80,30.43,30.15,29.85,10,5,1,32,19,38,0.00,8,Snow,343
2013-3-6,19,16,12,16,12,9,96,88,80,30.48,30.37,30.21,10,7,2,15,7,21,0.00,6,Snow,102
2013-3-7,32,25,17,26,20,16,100,85,69,30.31,30.20,30.13,10,8,5,22,14,30,0.00,4,,144
2013-3-8,36,27,17,31,25,16,100,88,75,30.24,30.10,29.91,7,4,1,20,8,28,0.28,4,Rain,114
2013-3-9,33,30,26,34,29,24,100,96,92,29.97,29.80,29.69,5,2,0,30,13,33,0.39,8,Fog-Rain-Snow,25
2013-3-10,26,17,7,23,15,3,92,86,80,30.16,30.06,29.89,10,4,1,32,22,37,0.00,7,Snow,4
2013-3-11,24,12,0,20,9,-1,95,79,62,30.09,29.96,29.83,10,10,10,16,7,20,0.00,5,,301
2013-3-12,26,19,12,23,17,12,92,83,74,30.37,30.10,29.87,10,5,1,25,18,31,T,7,Snow,328
2013-3-13,29,15,0,24,11,-2,100,87,74,30.44,30.33,30.12,10,9,1,20,8,23,0.00,1,,182
2013-3-14,37,29,20,31,26,20,100,88,75,30.14,30.09,30.03,10,9,5,20,6,24,0.00,1,,227
2013-3-15,34,25,15,29,25,16,100,93,85,30.04,29.91,29.79,7,3,0,25,12,30,0.00,8,Fog-Rain-Snow,35
2013-3-16,15,8,1,13,5,-1,92,84,73,30.33,30.21,30.04,10,10,7,23,14,,0.00,3,,355
2013-3-17,31,18,4,29,17,0,100,84,67,30.30,29.81,29.55,10,5,0,33,18,43,0.10,8,Fog-Snow,144
2013-3-18,33,18,3,32,10,0,100,87,73,30.09,29.72,29.47,10,2,0,38,23,48,0.03,7,Fog-Snow,291
2013-3-19,16,7,-3,9,2,-7,88,77,66,30.43,30.26,30.09,10,8,2,28,10,33,T,6,Snow,326
2013-3-20,15,6,-4,6,0,-6,91,75,59,30.44,30.36,30.23,10,10,10,14,8,16,0.00,0,,321
2013-3-21,21,7,-7,11,2,-10,91,76,61,30.21,30.13,30.07,10,10,8,14,5,17,0.00,0,,85
2013-3-22,26,16,6,17,10,3,88,78,67,30.14,30.11,30.08,10,10,10,9,5,13,0.00,3,,111
2013-3-23,26,22,17,19,16,12,92,80,68,30.23,30.19,30.08,10,9,4,13,5,15,T,6,Snow,337
2013-3-24,26,21,16,22,18,14,92,83,74,30.22,30.12,30.03,10,6,1,24,15,28,0.00,8,Snow,345
2013-3-25,25,17,9,18,16,8,92,82,71,30.40,30.27,30.13,10,8,2,23,15,28,T,7,Snow,338
2013-3-26,25,16,7,18,14,7,100,84,68,30.40,30.32,30.27,10,6,0,13,5,17,T,5,Fog-Snow,183
2013-3-27,37,28,19,30,23,16,91,78,64,30.32,30.28,30.26,10,10,10,18,10,23,0.00,1,,128
2013-3-28,42,35,27,35,30,24,96,87,78,30.27,30.24,30.21,10,8,5,15,7,18,0.00,3,,140
2013-3-29,52,42,31,42,35,30,96,81,66,30.23,30.11,29.94,10,8,5,13,8,16,0.00,2,,156
2013-3-30,44,38,31,39,34,30,100,90,79,30.01,29.96,29.91,10,2,0,20,9,25,0.00,6,Fog,316
2013-3-31,34,26,17,33,20,12,100,79,58,30.26,30.07,29.92,10,10,7,28,16,32,0.00,5,,339